Weather History for West Memphis, AR

Change the Weather History Date:

Friday, May 17, 2013

  Actual Average Record
Temperature  
Mean Temperature 72 °F -  
Max Temperature 80 °F 81 °F 93 °F (1963)
Min Temperature 64 °F 61 °F 46 °F (2011)
Cooling Degree Days 7    
Growing Degree Days 22 (Base 50)    
Moisture  
Dew Point 66 °F    
Average Humidity 88    
Maximum Humidity 100    
Minimum Humidity 62    
Precipitation  
Precipitation 0.26 in - - ()
Sea Level Pressure  
Sea Level Pressure 29.90 in    
Wind  
Wind Speed 8 mph (South)    
Max Wind Speed 14 mph    
Max Gust Speed 20 mph    
Visibility 9 miles    
Events Rain    
Averages and records for this station are not official NWS values.
T = Trace of Precipitation, MM = Missing Value Source: NWS Daily Summary

Daily Weather History Graph

Daily Weather History Graph

Search for Another Location

Airport:

Trip Planner

Search our weather history database for the weather conditions in past years. The results will help you decide how hot, cold, wet, or windy it might be!

Date:

Astronomy

May. 17, 2013 Rise Set
Actual Time 5:55 AM CDT 7:59 PM CDT
Civil Twilight 5:27 AM CDT 8:28 PM CDT
Nautical Twilight 4:52 AM CDT 9:02 PM CDT
Astronomical Twilight 4:15 AM CDT 9:39 PM CDT
Moon 12:21 PM CDT (5/17) 12:58 AM CDT (5/17)
Length of Visible Light 15h 00m
Length of Day
14h 04m
Waxing Crescent, 45% of the Moon is Illuminated
May 17
Waxing Crescent
May 17
First Quarter
May 24
Full
May 31
Last Quarter
Jun 8
New

Hourly Weather History & Observations

Time (CDT) Temp. Heat Index Dew Point Humidity Pressure Visibility Wind Dir Wind Speed Gust Speed Precip Events Conditions
12:53 AM 69.1 °F - 63.0 °F 81% 29.89 in 10.0 mi SSE 10.4 mph - N/A   Mostly Cloudy
1:53 AM 68.0 °F - 62.1 °F 81% 29.88 in 10.0 mi SSE 9.2 mph - 0.00 in   Overcast
2:53 AM 68.0 °F - 63.0 °F 84% 29.88 in 10.0 mi SSE 6.9 mph - N/A   Overcast
3:53 AM 66.9 °F - 64.9 °F 93% 29.87 in 8.0 mi SSE 4.6 mph - 0.06 in Rain Light Rain
4:46 AM 68.0 °F - 66.2 °F 94% 29.88 in 9.0 mi SSE 9.2 mph - 0.08 in Rain Light Rain
4:53 AM 68.0 °F - 66.0 °F 93% 29.87 in 9.0 mi South 8.1 mph - 0.08 in Rain Light Rain
5:22 AM 66.2 °F - 66.2 °F 100% 29.87 in 7.0 mi South 11.5 mph - 0.03 in Rain Light Rain
5:53 AM 66.9 °F - 64.9 °F 93% 29.88 in 10.0 mi SSW 12.7 mph - 0.06 in Rain Light Rain
7:31 AM 64.4 °F - 64.4 °F 100% 29.90 in 10.0 mi South 13.8 mph 19.6 mph 0.02 in   Overcast
7:53 AM 66.0 °F - 64.9 °F 96% 29.89 in 6.0 mi South 10.4 mph - 0.03 in Rain Light Rain
8:14 AM 66.2 °F - 66.2 °F 100% 29.90 in 5.0 mi South 10.4 mph - 0.01 in Rain Light Rain
8:33 AM 66.2 °F - 66.2 °F 100% 29.90 in 9.0 mi SSE 10.4 mph - 0.01 in   Overcast
8:53 AM 66.0 °F - 66.0 °F 100% 29.90 in 10.0 mi SSE 10.4 mph - 0.02 in Rain Light Rain
9:17 AM 66.2 °F - 66.2 °F 100% 29.91 in 1.8 mi SSE 8.1 mph - N/A   Overcast
9:28 AM 66.2 °F - 66.2 °F 100% 29.91 in 3.0 mi South 8.1 mph - 0.00 in Rain Light Rain
9:53 AM 66.9 °F - 66.0 °F 97% 29.90 in 10.0 mi South 8.1 mph - 0.00 in   Overcast
10:53 AM 69.1 °F - 66.9 °F 93% 29.91 in 10.0 mi SSW 5.8 mph - N/A   Overcast
11:50 AM 69.8 °F - 66.2 °F 88% 29.92 in 10.0 mi West 6.9 mph - N/A   Overcast
11:53 AM 70.0 °F - 66.9 °F 90% 29.91 in 10.0 mi Variable 5.8 mph - N/A   Overcast
12:35 PM 73.4 °F - 68.0 °F 83% 29.91 in 10.0 mi Variable 6.9 mph - N/A   Overcast
12:53 PM 73.9 °F - 69.1 °F 85% 29.91 in 10.0 mi WSW 3.5 mph - N/A   Overcast
1:53 PM 77.0 °F - 68.0 °F 74% 29.90 in 10.0 mi West 8.1 mph - 0.01 in   Mostly Cloudy
3:53 PM 79.0 °F - 66.0 °F 64% 29.88 in 10.0 mi Calm Calm - N/A   Overcast
4:53 PM 80.1 °F 82.1 °F 66.0 °F 62% 29.87 in 10.0 mi Variable 4.6 mph - N/A   Mostly Cloudy
5:53 PM 79.0 °F - 66.0 °F 64% 29.88 in 10.0 mi Variable 5.8 mph - N/A   Clear
6:53 PM 78.1 °F - 64.0 °F 62% 29.88 in 10.0 mi Calm Calm - N/A   Clear
7:53 PM 73.0 °F - 66.9 °F 81% 29.90 in 10.0 mi Calm Calm - N/A   Mostly Cloudy
8:53 PM 70.0 °F - 66.9 °F 90% 29.91 in 10.0 mi Calm Calm - N/A   Clear
9:53 PM 68.0 °F - 66.0 °F 93% 29.92 in 10.0 mi Calm Calm - N/A   Clear
10:53 PM 68.0 °F - 66.0 °F 93% 29.94 in 10.0 mi Calm Calm - N/A   Clear
11:53 PM 68.0 °F - 66.9 °F 96% 29.94 in 10.0 mi Calm Calm - N/A   Clear